Roswell, NM

5:26 AM MDT on April 23, 2017 (GMT -0600)
Roswell Industrial

Weather History for KROW - September, 2013

Change the Weather History Date:

Saturday, September 14, 2013

  Actual Average Record
Temperature  
Mean Temperature 74 °F 73 °F  
Max Temperature 83 °F 86 °F 102 °F (1960)
Min Temperature 64 °F 59 °F 43 °F (1959)
Degree Days  
Heating Degree Days 0 0  
Month to date heating degree days 0 0  
Since 1 July heating degree days 0 0  
Cooling Degree Days 9 8  
Month to date cooling degree days 170 138  
Year to date cooling degree days 2034 1662  
Growing Degree Days 23 (Base 50)    
Moisture  
Dew Point 60 °F    
Average Humidity 67    
Maximum Humidity 93    
Minimum Humidity 40    
Precipitation  
Precipitation 0.00 in 0.06 in 2.43 in (1923)
Month to date precipitation 3.44 0.77  
Year to date precipitation 8.04 9.70  
Sea Level Pressure  
Sea Level Pressure 29.83 in    
Wind  
Wind Speed 4 mph (South)    
Max Wind Speed 15 mph    
Max Gust Speed 20 mph    
Visibility 10 miles    
Events      
T = Trace of Precipitation, MM = Missing Value Source: NWS Daily Summary

Daily Weather History Graph

Daily Weather History Graph

Search for Another Location

Airport or City:

Trip Planner

Search our weather history database for the weather conditions in past years. The results will help you decide how hot, cold, wet, or windy it might be!

Date:

Astronomy

Sep. 14, 2013 Rise Set
Actual Time 6:41 AM MDT 7:05 PM MDT
Civil Twilight 6:16 AM MDT 7:30 PM MDT
Nautical Twilight 5:47 AM MDT 7:59 PM MDT
Astronomical Twilight 5:17 AM MDT 8:28 PM MDT
Moon 3:37 PM MDT (9/14) 1:27 AM MDT (9/14)
Length of Visible Light 13h 13m
Length of Day
12h 24m
Waxing Gibbous, 73% of the Moon is Illuminated
Sep 14
Waxing Gibbous
Sep 19
Full
Sep 26
Last Quarter
Oct 4
New
Oct 11
First Quarter

Hourly Weather History & Observations

Time (MDT) Temp. Heat Index Dew Point Humidity Pressure Visibility Wind Dir Wind Speed Gust Speed Precip Events Conditions
12:51 AM 71.1 °F - 64.0 °F 78% 29.82 in 10.0 mi Calm Calm - N/A   Overcast
1:51 AM 70.0 °F - 64.9 °F 84% 29.82 in 10.0 mi West 8.1 mph - N/A   Overcast
2:51 AM 69.1 °F - 64.0 °F 84% 29.82 in 10.0 mi WNW 5.8 mph - N/A   Partly Cloudy
3:51 AM 66.9 °F - 63.0 °F 87% 29.82 in 10.0 mi Calm Calm - N/A   Clear
4:51 AM 66.0 °F - 63.0 °F 90% 29.82 in 10.0 mi Calm Calm - N/A   Clear
5:51 AM 64.9 °F - 62.1 °F 90% 29.84 in 10.0 mi Calm Calm - N/A   Clear
6:51 AM 64.0 °F - 61.0 °F 90% 29.86 in 10.0 mi Calm Calm - N/A   Clear
7:51 AM 66.0 °F - 62.1 °F 87% 29.88 in 10.0 mi North 3.5 mph - N/A   Clear
8:51 AM 70.0 °F - 64.0 °F 81% 29.89 in 10.0 mi Calm Calm - N/A   Clear
9:51 AM 73.0 °F - 59.0 °F 61% 29.90 in 10.0 mi SE 5.8 mph - N/A   Clear
10:51 AM 75.0 °F - 59.0 °F 57% 29.89 in 10.0 mi Calm Calm - N/A   Clear
11:51 AM 75.9 °F - 57.9 °F 54% 29.88 in 10.0 mi SSE 9.2 mph - N/A   Clear
12:51 PM 80.1 °F 80.6 °F 57.9 °F 47% 29.85 in 10.0 mi SSE 10.4 mph - N/A   Clear
1:51 PM 81.0 °F 80.8 °F 55.9 °F 42% 29.82 in 10.0 mi South 8.1 mph 18.4 mph N/A   Clear
2:51 PM 81.0 °F 80.8 °F 55.9 °F 42% 29.80 in 10.0 mi Variable 3.5 mph - N/A   Clear
3:51 PM 82.9 °F 82.1 °F 55.9 °F 39% 29.78 in 10.0 mi Variable 5.8 mph 16.1 mph N/A   Clear
4:51 PM 82.0 °F 81.7 °F 57.0 °F 42% 29.78 in 10.0 mi South 11.5 mph - N/A   Clear
5:51 PM 81.0 °F 81.0 °F 57.0 °F 44% 29.79 in 10.0 mi South 8.1 mph - N/A   Clear
6:51 PM 77.0 °F - 57.0 °F 50% 29.80 in 10.0 mi South 4.6 mph - N/A   Scattered Clouds
7:51 PM 73.9 °F - 61.0 °F 64% 29.81 in 10.0 mi South 3.5 mph - N/A   Clear
8:51 PM 72.0 °F - 59.0 °F 64% 29.82 in 10.0 mi South 3.5 mph - N/A   Clear
9:51 PM 69.1 °F - 60.1 °F 73% 29.84 in 10.0 mi South 5.8 mph - N/A   Clear
10:51 PM 69.1 °F - 62.1 °F 78% 29.83 in 10.0 mi WSW 5.8 mph - N/A   Clear
11:51 PM 66.0 °F - 61.0 °F 84% 29.84 in 10.0 mi Calm Calm - N/A   Clear